[[[{"header":{"parameterUnit":"kt","parameterCategory":2,"dx":1,"dy":1,"la1":30.253999710083008,"la2":30.299108505249023,"lo1":-89.0895004272461,"lo2":-89.04439544677734,"nx":28,"ny":28,"refTime":"2022-09-23T21:00:00:Z","depth":0,"parameterNumber":1,"parameterNumberName":"U-component_of_WINDS"},"data":[-3.7462,-3.7479,-3.7456,-3.7466,-3.7448,-3.745,-3.7444,-3.7434,-3.7419,-3.7421,-3.7418,-3.7396,-3.7373,-3.7364,-3.7359,-3.7349,-3.7349,-3.7375,-3.7359,-3.7266,-3.7252,-3.7238,-3.7232,-3.7375,-3.7376,-3.7458,-3.7458,-3.7459,-3.7405,-3.7387,-3.7384,-3.7366,-3.7364,-3.7327,-3.7309,-3.731,-3.7313,-3.7295,-3.7289,-3.7288,-3.7284,-3.725,-3.7242,-3.7251,-3.7231,-3.725,-3.7248,-3.7245,-3.7146,-3.714,-3.7266,-3.7266,-3.7266,-3.7266,-3.7266,-3.7266,-3.7295,-3.7306,-3.728,-3.7276,-3.726,-3.7248,-3.7254,-3.7226,-3.7222,-3.7209,-3.718,-3.7182,-3.7159,-3.7134,-3.712,-3.7122,-3.7096,-3.7108,-3.7111,-3.7114,-3.7123,-3.7012,-3.7119,-3.7118,-3.7118,-3.7118,-3.7117,0,-3.7207,-3.7186,-3.718,-3.7168,-3.7163,-3.7151,-3.7135,-3.7138,-3.7082,-3.7082,-3.7078,-3.7072,-3.7061,-3.7055,-3.704,-3.702,-3.6978,-3.697,-3.6979,-3.6993,-3.701,-3.7002,-3.6843,-3.6966,-3.6965,-3.6964,-3.6963,-3.6963,-3.7094,-3.7108,-3.7067,-3.7066,-3.705,-3.7049,-3.7043,-3.6992,-3.6988,-3.6961,-3.6972,-3.6965,-3.6956,-3.6954,-3.6917,-3.6908,-3.6886,-3.6937,-3.6884,-3.69,-3.6888,-3.6888,-3.689,-3.6948,-3.695,-3.6951,-3.6952,0,-3.7034,-3.6991,-3.7003,-3.6958,-3.6948,-3.6965,-3.6927,-3.6935,-3.6904,-3.691,-3.6908,-3.6859,-3.6855,-3.6809,-3.6794,-3.6771,-3.6803,-3.6782,-3.6812,-3.6805,-3.6847,-3.6844,-3.6986,-3.7002,-3.6853,-3.6854,-3.6856,0,-3.692,-3.6939,-3.6873,-3.6882,-3.6903,-3.6849,-3.6871,-3.6845,-3.682,-3.6824,-3.6768,-3.6773,-3.6711,-3.671,-3.6674,-3.6692,-3.6688,-3.6671,-3.6661,-3.6675,-3.6678,-3.667,-3.6663,-3.6636,-3.6635,-3.6635,-3.6634,0,-3.6829,-3.6813,-3.6828,-3.6817,-3.6769,-3.6778,-3.6758,-3.6727,-3.6721,-3.6705,-3.67,-3.6686,-3.6677,-3.6668,-3.6621,-3.6587,-3.664,-3.6584,-3.6622,-3.6624,-3.6634,-3.6634,-3.6773,-3.6633,-3.6633,-3.6633,-3.6633,0,-3.6728,-3.6712,-3.6739,-3.6697,-3.6695,-3.6704,-3.6685,-3.6681,-3.6653,-3.663,-3.6616,-3.6571,-3.658,-3.6529,-3.6541,-3.651,-3.6506,-3.6489,-3.6491,-3.6487,-3.643,-3.6515,-3.6653,-3.6665,-3.6489,-3.6487,-3.6486,0,-3.6637,-3.665,-3.6601,-3.6627,-3.6626,-3.6562,-3.6571,-3.6546,-3.6516,-3.6511,-3.6477,-3.6471,-3.6422,-3.6413,-3.6426,-3.639,-3.643,-3.6383,-3.6378,-3.6379,-3.6389,-3.6515,-3.6547,-3.6628,-3.647,-3.6472,-3.6473,0,-3.6559,-3.6496,-3.6504,-3.6489,-3.6444,-3.6442,-3.6452,-3.6433,-3.6433,-3.6409,-3.6416,-3.6405,-3.6369,-3.6353,-3.6313,-3.6328,-3.6401,-3.6285,-3.6283,-3.6309,-3.6457,-3.6488,-3.6502,-3.6372,-3.6373,-3.6375,-3.646,0,-3.6419,-3.6418,-3.6436,-3.6401,-3.6391,-3.6402,-3.6347,-3.6345,-3.6307,-3.6273,-3.6282,-3.6244,-3.6223,-3.6224,-3.6186,-3.6235,-3.6219,-3.6178,-3.6121,-3.6204,-3.6231,-3.6242,-3.6087,-3.6085,-3.6083,-3.6081,0,0,-3.6343,-3.6338,-3.628,-3.6285,-3.6273,-3.6202,-3.622,-3.6199,-3.6158,-3.6152,-3.6121,-3.6099,-3.6069,-3.6084,-3.6106,-3.6096,-3.6101,-3.6071,-3.6165,-3.6175,-3.6183,-3.6213,-3.6225,-3.6078,-3.6078,-3.6077,-3.6077,0,-3.6279,-3.625,-3.6266,-3.6243,-3.6205,-3.6166,-3.6171,-3.6119,-3.6097,-3.6102,-3.6042,-3.604,-3.6021,-3.5998,-3.5984,-3.607,-3.6023,-3.6067,-3.6132,-3.615,-3.6162,-3.6172,-3.6204,-3.6216,-3.6073,-3.6073,-3.6073,0,-3.6193,-3.6155,-3.6156,-3.6122,-3.6095,-3.6094,-3.6022,-3.6022,-3.6021,-3.5939,-3.5944,-3.5916,-3.5878,-3.5899,-3.5905,-3.5876,-3.5956,-3.5919,-3.5928,-3.5927,-3.5941,-3.5955,-3.5968,-3.5801,-3.58,-3.5799,0,0,-3.6145,-3.6141,-3.6081,-3.6103,-3.6091,-3.6032,-3.6024,-3.5984,-3.5952,-3.5939,-3.5899,-3.587,-3.5859,-3.5852,-3.5838,-3.5868,-3.5856,-3.5888,-3.5901,-3.5911,-3.5916,-3.5933,-3.5948,-3.5797,-3.5796,-3.5796,0,0,-3.6121,-3.6052,-3.6019,-3.6037,-3.601,-3.595,-3.5966,-3.5924,-3.5904,-3.5896,-3.5827,-3.5816,-3.5833,-3.5806,-3.5777,-3.5817,-3.5762,-3.5767,-3.5833,-3.5849,-3.5861,-3.5867,-3.5695,0,0,0,0,0,-3.6025,-3.6061,-3.6032,-3.6026,-3.5979,-3.5967,-3.5961,-3.5905,-3.5868,-3.5883,-3.5843,-3.5792,-3.5777,-3.575,-3.5745,-3.5777,-3.5762,-3.5768,-3.5774,-3.5865,-3.5882,-3.5896,0,0,0,0,0,0,-3.6023,-3.6016,-3.603,-3.5974,-3.5963,-3.5965,-3.5891,-3.5877,-3.5865,-3.5856,-3.5802,-3.5791,-3.5742,-3.5748,-3.5745,-3.5776,-3.5696,-3.5764,-3.577,-3.5774,-3.5871,-3.5885,-3.5897,0,0,0,0,0,-3.602,-3.6015,-3.5955,-3.5973,-3.5963,-3.5897,-3.589,-3.5877,-3.5867,-3.5803,-3.579,-3.5825,-3.5744,-3.5738,-3.5746,-3.5779,-3.5698,-3.5697,-3.5768,-3.5772,-3.5776,-3.5878,0,0,0,0,0,0,-3.6018,-3.6003,-3.5951,-3.5946,-3.5954,-3.5896,-3.5885,-3.5877,-3.5813,-3.5801,-3.5823,-3.5816,-3.5747,-3.5741,-3.5736,-3.5783,-3.57,-3.5699,-3.5698,-3.5771,-3.5774,-3.5777,0,0,0,0,0,0,-3.6005,-3.5999,-3.5949,-3.5928,-3.592,-3.5895,-3.5885,-3.5883,-3.5814,-3.5836,-3.5829,-3.5821,-3.5753,-3.5743,-3.5739,-3.5738,-3.5701,-3.57,-3.5699,-3.5699,-3.5773,-3.5776,0,0,0,0,0,0,-3.6002,-3.5996,-3.5929,-3.5923,-3.5916,-3.5855,-3.5892,-3.5847,-3.5797,-3.584,-3.5791,-3.5788,-3.5758,-3.5752,-3.5742,-3.5743,-3.5739,-3.5701,-3.57,-3.57,-3.5699,0,0,0,0,0,0,0,-3.5999,-3.6048,-3.5981,-3.5919,-3.5912,-3.59,-3.5899,-3.5897,-3.5796,-3.5794,-3.5791,-3.5789,-3.5706,-3.5705,-3.5704,-3.5747,0,0,-3.5701,-3.57,0,0,0,0,0,0,0,0,-3.6049,-3.6048,-3.5981,-3.598,-3.5979,-3.59,-3.5899,-3.5898,-3.5796,-3.5794,-3.5792,-3.579,-3.5706,-3.5705,-3.5704,0,0,0,0,0,0,0,0,0,0,0,0,0,0,0,-3.5981,-3.598,0,-3.59,-3.5899,-3.5898,-3.5796,-3.5794,-3.5792,-3.5791,-3.5706,-3.5705,-3.5704,0,0,0,0,0,0,0,0,0,0,0,0,0,0,0,0,0,0,0,0,0,0,0,0,0,0,0,0,0,0,0,0,0,0,0,0,0,0,0,0,0,0,0,0,0,0,0,0,0,0,0,0,0,0,0,0,0,0,0,0,0,0,0,0,0,0,0,0,0]}],[{"header":{"parameterUnit":"kt","parameterCategory":2,"dx":1,"dy":1,"la1":30.253999710083008,"la2":30.299108505249023,"lo1":-89.0895004272461,"lo2":-89.04439544677734,"nx":28,"ny":28,"refTime":"2022-09-23T21:00:00:Z","depth":0,"parameterNumber":2,"parameterNumberName":"V-component_of_WINDS"},"data":[2.2453,2.2472,2.2473,2.2494,2.2499,2.2513,2.2518,2.2525,2.253,2.2546,2.2555,2.2558,2.2563,2.2573,2.2582,2.2583,2.2586,2.2589,2.2589,2.2572,2.257,2.2568,2.2563,2.259,2.2591,2.2606,2.2606,2.2607,2.2433,2.2438,2.2451,2.2464,2.2474,2.247,2.248,2.2488,2.2501,2.2509,2.2519,2.2533,2.2544,2.255,2.256,2.2567,2.2565,2.2569,2.2568,2.2568,2.255,2.2546,2.2569,2.2569,2.2569,2.2569,2.2569,2.2569,2.2395,2.2407,2.2417,2.2431,2.2439,2.2448,2.2459,2.2464,2.2476,2.249,2.249,2.2505,2.2513,2.2529,2.2534,2.2544,2.2541,2.2545,2.2546,2.2547,2.2546,2.2516,2.2547,2.2547,2.2547,2.2547,2.2547,0,2.2367,2.2368,2.2383,2.2396,2.2407,2.2419,2.243,2.2437,2.2441,2.2451,2.2466,2.2475,2.2492,2.2505,2.2517,2.2522,2.252,2.2521,2.2524,2.2522,2.2517,2.2517,2.2484,2.252,2.252,2.252,2.252,2.252,2.2326,2.2343,2.2356,2.2365,2.2373,2.2389,2.2399,2.2402,2.2412,2.2425,2.2436,2.2451,2.2463,2.2486,2.2492,2.2504,2.2503,2.2516,2.2505,2.2502,2.25,2.2498,2.2498,2.2518,2.2518,2.2518,2.2518,0,2.2301,2.2308,2.2335,2.2348,2.2351,2.2368,2.2378,2.2391,2.2396,2.2414,2.2418,2.2426,2.2441,2.2446,2.2465,2.2466,2.2487,2.2487,2.2482,2.2481,2.2491,2.2488,2.2528,2.2531,2.2506,2.2506,2.2506,0,2.2267,2.229,2.2297,2.2313,2.2336,2.2341,2.2363,2.2371,2.2381,2.2396,2.2395,2.2409,2.2414,2.2427,2.243,2.2449,2.2454,2.2455,2.2455,2.2454,2.2453,2.2458,2.2456,2.246,2.2459,2.2459,2.2459,0,2.2226,2.226,2.2286,2.2294,2.2313,2.2324,2.2332,2.2346,2.2356,2.2371,2.2377,2.2394,2.2403,2.2415,2.2419,2.2411,2.2443,2.2433,2.2444,2.2443,2.2451,2.245,2.2484,2.2459,2.2459,2.2459,2.2459,0,2.22,2.2217,2.2256,2.227,2.2279,2.2297,2.2314,2.2332,2.2346,2.235,2.2362,2.2363,2.2384,2.2372,2.2398,2.2386,2.2394,2.2398,2.2399,2.2401,2.2388,2.2403,2.2437,2.2439,2.2401,2.24,2.24,0,2.2147,2.2191,2.2196,2.2234,2.2255,2.2253,2.2273,2.2287,2.2294,2.2311,2.2319,2.2339,2.2333,2.234,2.2353,2.2361,2.2376,2.236,2.2379,2.2379,2.2372,2.2404,2.2407,2.2429,2.2394,2.2395,2.2395,0,2.2108,2.2135,2.2142,2.2151,2.2175,2.2194,2.2218,2.2241,2.2251,2.2271,2.2288,2.232,2.2314,2.2328,2.2333,2.2345,2.2366,2.2339,2.2339,2.234,2.2393,2.2395,2.2399,2.2365,2.2366,2.2366,2.239,0,2.2057,2.2084,2.2105,2.2131,2.2148,2.2176,2.2185,2.2201,2.2203,2.2211,2.2241,2.2258,2.2282,2.2291,2.2295,2.2324,2.232,2.2316,2.2306,2.2328,2.2335,2.2339,2.2293,2.2292,2.2292,2.2292,0,0,2.2003,2.2043,2.2052,2.2078,2.2093,2.2094,2.2121,2.2135,2.2166,2.2174,2.2169,2.2217,2.2232,2.2267,2.2275,2.2286,2.2291,2.2285,2.2318,2.2321,2.2323,2.2332,2.2335,2.2292,2.2292,2.2292,2.2291,0,2.1987,2.2007,2.2037,2.2052,2.2076,2.2086,2.2092,2.2117,2.2124,2.2157,2.2157,2.2177,2.2219,2.2232,2.2245,2.2281,2.228,2.2288,2.2302,2.2316,2.2319,2.2322,2.233,2.2334,2.2291,2.2291,2.2291,0,2.1948,2.1967,2.1984,2.2023,2.204,2.2064,2.2055,2.2084,2.2101,2.2103,2.2135,2.2147,2.2169,2.2204,2.222,2.2216,2.2268,2.2256,2.2258,2.226,2.2274,2.2277,2.2281,2.2236,2.2236,2.2236,0,0,2.1932,2.196,2.1984,2.2021,2.2031,2.2047,2.2063,2.2068,2.209,2.2099,2.2115,2.2134,2.2158,2.2173,2.2197,2.2235,2.2238,2.2249,2.2252,2.2254,2.2257,2.2271,2.2275,2.2235,2.2235,2.2235,0,0,2.1925,2.1955,2.1955,2.2,2.202,2.2047,2.2068,2.2068,2.2092,2.209,2.2101,2.2107,2.214,2.2153,2.2139,2.2193,2.2183,2.2187,2.2184,2.2187,2.219,2.2185,2.2133,0,0,0,0,0,2.1916,2.1951,2.1951,2.196,2.2012,2.2047,2.2053,2.2064,2.2054,2.207,2.2083,2.2083,2.2146,2.2134,2.2142,2.2158,2.2223,2.2225,2.2227,2.2232,2.2236,2.2239,0,0,0,0,0,0,2.192,2.1932,2.195,2.1978,2.1989,2.2046,2.2032,2.2036,2.2053,2.2052,2.208,2.2084,2.2093,2.213,2.2138,2.2152,2.213,2.2224,2.2225,2.2227,2.2233,2.2236,2.2239,0,0,0,0,0,2.1923,2.1933,2.2014,2.1977,2.1987,2.2009,2.2031,2.2034,2.2047,2.207,2.2073,2.2054,2.2093,2.21,2.2135,2.2149,2.2125,2.2128,2.2225,2.2226,2.2227,2.2235,0,0,0,0,0,0,2.1926,2.1935,2.2016,2.2019,2.1966,2.2006,2.2012,2.2032,2.2064,2.2068,2.2044,2.2043,2.2093,2.2099,2.2104,2.2147,2.2121,2.2124,2.2126,2.2226,2.2227,2.2228,0,0,0,0,0,0,2.193,2.1938,2.2018,2.2003,2.2005,2.2003,2.2009,2.2041,2.2065,2.2036,2.2037,2.2043,2.2085,2.2098,2.2102,2.2153,2.2118,2.212,2.2122,2.2123,2.2227,2.2228,0,0,0,0,0,0,2.1934,2.194,2.2003,2.2004,2.2005,2.2044,2.2032,2.2084,2.2053,2.2035,2.2051,2.2049,2.2084,2.2089,2.2101,2.215,2.2152,2.2118,2.212,2.2121,2.2122,0,0,0,0,0,0,0,2.1936,2.1889,2.1996,2.2004,2.2006,2.205,2.2051,2.2052,2.2053,2.2052,2.2051,2.205,2.2102,2.2105,2.2108,2.2147,0,0,2.2117,2.2119,0,0,0,0,0,0,0,0,2.1886,2.1888,2.1996,2.1997,2.1998,2.205,2.2051,2.2052,2.2053,2.2052,2.2051,2.205,2.2103,2.2105,2.2108,0,0,0,0,0,0,0,0,0,0,0,0,0,0,0,2.1996,2.1997,0,2.205,2.2051,2.2052,2.2053,2.2052,2.2051,2.2051,2.2104,2.2106,2.2108,0,0,0,0,0,0,0,0,0,0,0,0,0,0,0,0,0,0,0,0,0,0,0,0,0,0,0,0,0,0,0,0,0,0,0,0,0,0,0,0,0,0,0,0,0,0,0,0,0,0,0,0,0,0,0,0,0,0,0,0,0,0,0,0,0,0,0,0,0]}]]]